TIANLIAN 2-04

Last updated on Mon Jun 22 2026 00:03:08 GMT+0000 (Coordinated Universal Time)

1 63361U 25062A 26172.40589769 -.00000136 00000+0 00000+0 0 9999 2 63361 4.3626 274.3783 0031483 10.3849 211.0218 1.00272079 4647
UTC large
Height (km)
Speed (km/s)
/
Latitude / Longitude
Inclination (degrees)
Orbital Period (minutes)
Azimuth
Elevation
Range (km)
Doppler Factor

Next 0 passes for location: London (51.5072 / 0.1276)

No passes found over London.
TIANLIAN 2-04